| time (UTC) | temp C | wind direction | speed KPH | gust KPH | rain 1hr cm | rain 24hr cm | rain mn cm | humidity % | barometer mb |
| 20260507225309 | 5 | 360 | 0.0 | 3.2 | 0.00 | 0.00 | 0.00 | 81 | 1100.0 |
| 20260507224310 | 5 | 360 | 0.0 | 3.2 | 0.00 | 0.00 | 0.00 | 81 | 1100.0 |
| 20260507223309 | 6 | 337 | 0.0 | 4.8 | 0.00 | 0.00 | 0.00 | 82 | 1100.0 |
| 20260507222315 | 6 | 337 | 0.0 | 4.8 | 0.00 | 0.00 | 0.00 | 82 | 1100.0 |
| 20260507221314 | 6 | 135 | 0.0 | 0.0 | 0.00 | 0.00 | 0.00 | 82 | 1100.0 |
| 20260507220314 | 6 | 135 | 0.0 | 0.0 | 0.00 | 0.00 | 0.00 | 82 | 1100.0 |
| 20260507215315 | 6 | 90 | 0.0 | 0.0 | 0.00 | 0.00 | 0.00 | 82 | 1100.0 |
| 20260507214314 | 6 | 90 | 0.0 | 0.0 | 0.00 | 0.00 | 0.00 | 82 | 1100.0 |
| 20260507213314 | 6 | 337 | 1.6 | 1.6 | 0.00 | 0.00 | 0.00 | 82 | 1100.0 |
| 20260507212313 | 6 | 337 | 1.6 | 1.6 | 0.00 | 0.00 | 0.00 | 82 | 1100.0 |
| 20260507211313 | 7 | 337 | 0.0 | 0.0 | 0.00 | 0.00 | 0.00 | 80 | 1100.0 |
| 20260507210315 | 7 | 337 | 0.0 | 0.0 | 0.00 | 0.00 | 0.00 | 80 | 1100.0 |
| 20260507205315 | 7 | 270 | 1.6 | 3.2 | 0.00 | 0.00 | 0.00 | 80 | 1100.0 |
| 20260507204313 | 7 | 270 | 1.6 | 3.2 | 0.00 | 0.00 | 0.00 | 80 | 1100.0 |
| 20260507203312 | 7 | 360 | 0.0 | 0.0 | 0.00 | 0.00 | 0.00 | 78 | 1100.0 |
| 20260507202313 | 7 | 360 | 0.0 | 0.0 | 0.00 | 0.00 | 0.00 | 78 | 1100.0 |
| 20260507201313 | 7 | 337 | 1.6 | 3.2 | 0.00 | 0.00 | 0.00 | 79 | 1100.0 |
| 20260507200312 | 7 | 337 | 1.6 | 3.2 | 0.00 | 0.00 | 0.00 | 79 | 1100.0 |
| 20260507195312 | 7 | 67 | 0.0 | 0.0 | 0.00 | 0.00 | 0.00 | 77 | 1100.0 |
| 20260507194312 | 7 | 67 | 0.0 | 0.0 | 0.00 | 0.00 | 0.00 | 77 | 1100.0 |
| 20260507193313 | 7 | 360 | 1.6 | 4.8 | 0.00 | 0.00 | 0.00 | 76 | 1100.0 |
| 20260507192313 | 7 | 360 | 1.6 | 4.8 | 0.00 | 0.00 | 0.00 | 76 | 1100.0 |
| 20260507191311 | 7 | 22 | 0.0 | 0.0 | 0.00 | 0.00 | 0.00 | 71 | 1100.0 |
| 20260507190312 | 7 | 22 | 0.0 | 0.0 | 0.00 | 0.00 | 0.00 | 71 | 1100.0 |
| 20260507185312 | 8 | 90 | 0.0 | 0.0 | 0.00 | 0.00 | 0.00 | 69 | 1100.0 |
| 20260507184311 | 8 | 90 | 0.0 | 0.0 | 0.00 | 0.00 | 0.00 | 69 | 1100.0 |
| 20260507183312 | 10 | 67 | 0.0 | 0.0 | 0.00 | 0.00 | 0.00 | 66 | 1100.0 |
| 20260507182311 | 10 | 67 | 0.0 | 0.0 | 0.00 | 0.00 | 0.00 | 66 | 1100.0 |
| 20260507181310 | 11 | 90 | 3.2 | 0.0 | 0.00 | 0.00 | 0.00 | 66 | 1100.0 |
| 20260507180311 | 11 | 90 | 3.2 | 0.0 | 0.00 | 0.00 | 0.00 | 66 | 1100.0 |
| 20260507175310 | 11 | 157 | 1.6 | 0.0 | 0.00 | 0.00 | 0.00 | 65 | 1100.0 |
| 20260507174310 | 11 | 157 | 1.6 | 0.0 | 0.00 | 0.00 | 0.00 | 65 | 1100.0 |
| 20260507173310 | 12 | 90 | 3.2 | 1.6 | 0.00 | 0.00 | 0.00 | 65 | 1100.0 |
| 20260507172310 | 12 | 90 | 3.2 | 1.6 | 0.00 | 0.00 | 0.00 | 65 | 1100.0 |
| 20260507171310 | 12 | 67 | 4.8 | 9.7 | 0.00 | 0.00 | 0.00 | 64 | 1100.0 |
| 20260507170310 | 12 | 67 | 4.8 | 9.7 | 0.00 | 0.00 | 0.00 | 64 | 1100.0 |
| 20260507165309 | 13 | 90 | 4.8 | 4.8 | 0.00 | 0.00 | 0.00 | 61 | 1100.0 |
| 20260507164310 | 13 | 90 | 4.8 | 4.8 | 0.00 | 0.00 | 0.00 | 61 | 1100.0 |
| 20260507163315 | 14 | 337 | 4.8 | 4.8 | 0.00 | 0.00 | 0.00 | 56 | 1100.0 |
| 20260507162315 | 14 | 337 | 4.8 | 4.8 | 0.00 | 0.00 | 0.00 | 56 | 1100.0 |
| 20260507161314 | 15 | 67 | 6.4 | 8.0 | 0.00 | 0.00 | 0.00 | 51 | 1100.0 |
| 20260507160313 | 15 | 67 | 6.4 | 8.0 | 0.00 | 0.00 | 0.00 | 51 | 1100.0 |
| 20260507155313 | 15 | 360 | 4.8 | 6.4 | 0.00 | 0.00 | 0.00 | 52 | 1100.0 |
| 20260507154313 | 15 | 360 | 4.8 | 6.4 | 0.00 | 0.00 | 0.00 | 52 | 1100.0 |
| 20260507153313 | 15 | 22 | 6.4 | 6.4 | 0.00 | 0.00 | 0.00 | 52 | 1100.0 |
| 20260507152313 | 15 | 22 | 6.4 | 6.4 | 0.00 | 0.00 | 0.00 | 52 | 1100.0 |
| 20260507151313 | 17 | 90 | 6.4 | 3.2 | 0.00 | 0.00 | 0.00 | 49 | 1100.0 |
| 20260507150313 | 17 | 90 | 6.4 | 3.2 | 0.00 | 0.00 | 0.00 | 49 | 1100.0 |
| 20260507145313 | 16 | 157 | 4.8 | 1.6 | 0.00 | 0.00 | 0.00 | 50 | 1100.0 |
| 20260507144312 | 16 | 157 | 4.8 | 1.6 | 0.00 | 0.00 | 0.00 | 50 | 1100.0 |
| 20260507143314 | 16 | 180 | 3.2 | 4.8 | 0.00 | 0.00 | 0.00 | 50 | 1100.0 |
| 20260507142314 | 16 | 180 | 3.2 | 4.8 | 0.00 | 0.00 | 0.00 | 50 | 1100.0 |
| 20260507141312 | 16 | 337 | 4.8 | 4.8 | 0.00 | 0.00 | 0.00 | 49 | 1100.0 |
| 20260507140312 | 16 | 337 | 4.8 | 4.8 | 0.00 | 0.00 | 0.00 | 49 | 1100.0 |
| 20260507135313 | 17 | 337 | 4.8 | 4.8 | 0.00 | 0.00 | 0.00 | 45 | 1100.0 |
| 20260507134311 | 17 | 337 | 4.8 | 4.8 | 0.00 | 0.00 | 0.00 | 45 | 1100.0 |
| 20260507133313 | 17 | 360 | 4.8 | 6.4 | 0.00 | 0.00 | 0.00 | 47 | 1100.0 |
| 20260507132311 | 17 | 360 | 4.8 | 6.4 | 0.00 | 0.00 | 0.00 | 47 | 1100.0 |
| 20260507131311 | 17 | 45 | 8.0 | 4.8 | 0.00 | 0.00 | 0.00 | 47 | 1100.0 |
| 20260507130311 | 17 | 45 | 8.0 | 4.8 | 0.00 | 0.00 | 0.00 | 47 | 1100.0 |
| 20260507125312 | 16 | 157 | 4.8 | 6.4 | 0.00 | 0.00 | 0.00 | 51 | 1100.0 |
| 20260507124312 | 16 | 157 | 4.8 | 6.4 | 0.00 | 0.00 | 0.00 | 51 | 1100.0 |
| 20260507123311 | 16 | 337 | 4.8 | 11.3 | 0.00 | 0.00 | 0.00 | 52 | 1100.0 |
| 20260507122310 | 16 | 337 | 4.8 | 11.3 | 0.00 | 0.00 | 0.00 | 52 | 1100.0 |
| 20260507121312 | 16 | 112 | 4.8 | 3.2 | 0.00 | 0.00 | 0.00 | 49 | 1100.0 |
| 20260507120310 | 16 | 112 | 4.8 | 3.2 | 0.00 | 0.00 | 0.00 | 49 | 1100.0 |
| 20260507115311 | 17 | 337 | 6.4 | 8.0 | 0.00 | 0.00 | 0.00 | 49 | 1100.0 |
| 20260507114310 | 17 | 337 | 6.4 | 8.0 | 0.00 | 0.00 | 0.00 | 49 | 1100.0 |
| 20260507113311 | 17 | 337 | 8.0 | 6.4 | 0.00 | 0.00 | 0.00 | 51 | 1100.0 |
| 20260507112311 | 17 | 337 | 8.0 | 6.4 | 0.00 | 0.00 | 0.00 | 51 | 1100.0 |
| 20260507111309 | 16 | 337 | 6.4 | 11.3 | 0.00 | 0.00 | 0.00 | 53 | 1100.0 |
| 20260507110309 | 16 | 337 | 6.4 | 11.3 | 0.00 | 0.00 | 0.00 | 53 | 1100.0 |
| 20260507105311 | 16 | 45 | 6.4 | 12.9 | 0.00 | 0.00 | 0.00 | 53 | 1100.0 |
| 20260507104316 | 16 | 45 | 6.4 | 12.9 | 0.00 | 0.00 | 0.00 | 53 | 1100.0 |
| 20260507103315 | 15 | 67 | 6.4 | 11.3 | 0.00 | 0.00 | 0.00 | 57 | 1100.0 |
| 20260507102315 | 15 | 67 | 6.4 | 11.3 | 0.00 | 0.00 | 0.00 | 57 | 1100.0 |
| 20260507101313 | 14 | 112 | 6.4 | 1.6 | 0.00 | 0.00 | 0.00 | 58 | 1100.0 |
| 20260507100313 | 14 | 112 | 6.4 | 1.6 | 0.00 | 0.00 | 0.00 | 58 | 1100.0 |
| 20260507095313 | 15 | 112 | 6.4 | 3.2 | 0.00 | 0.00 | 0.00 | 56 | 1100.0 |
| 20260507094314 | 15 | 112 | 6.4 | 3.2 | 0.00 | 0.00 | 0.00 | 56 | 1100.0 |
| 20260507093313 | 16 | 45 | 6.4 | 4.8 | 0.00 | 0.00 | 0.00 | 55 | 1100.0 |
| 20260507092313 | 16 | 45 | 6.4 | 4.8 | 0.00 | 0.00 | 0.00 | 55 | 1100.0 |
| 20260507091314 | 14 | 337 | 6.4 | 8.0 | 0.00 | 0.00 | 0.00 | 58 | 1100.0 |
| 20260507090314 | 14 | 337 | 6.4 | 8.0 | 0.00 | 0.00 | 0.00 | 58 | 1100.0 |
| 20260507085312 | 13 | 67 | 6.4 | 9.7 | 0.00 | 0.00 | 0.00 | 61 | 1100.0 |
| 20260507084312 | 13 | 67 | 6.4 | 9.7 | 0.00 | 0.00 | 0.00 | 61 | 1100.0 |
| 20260507083312 | 12 | 45 | 6.4 | 22.5 | 0.00 | 0.00 | 0.00 | 66 | 1100.0 |
| 20260507082313 | 12 | 45 | 6.4 | 22.5 | 0.00 | 0.00 | 0.00 | 66 | 1100.0 |
| 20260507081312 | 11 | 337 | 6.4 | 3.2 | 0.00 | 0.00 | 0.00 | 71 | 1100.0 |
| 20260507080312 | 11 | 337 | 6.4 | 3.2 | 0.00 | 0.00 | 0.00 | 71 | 1100.0 |
| 20260507075311 | 10 | 360 | 6.4 | 4.8 | 0.00 | 0.00 | 0.00 | 74 | 1100.0 |
| 20260507074311 | 10 | 360 | 6.4 | 4.8 | 0.00 | 0.00 | 0.00 | 74 | 1100.0 |
| 20260507073311 | 9 | 90 | 4.8 | 8.0 | 0.00 | 0.00 | 0.00 | 75 | 1100.0 |
| 20260507072312 | 9 | 90 | 4.8 | 8.0 | 0.00 | 0.00 | 0.00 | 75 | 1100.0 |
| 20260507071312 | 9 | 45 | 6.4 | 4.8 | 0.00 | 0.00 | 0.00 | 76 | 1100.0 |
| 20260507070311 | 9 | 45 | 6.4 | 4.8 | 0.00 | 0.00 | 0.00 | 76 | 1100.0 |
| 20260507065311 | 8 | 112 | 4.8 | 1.6 | 0.00 | 0.00 | 0.00 | 79 | 1100.0 |
| 20260507064310 | 8 | 112 | 4.8 | 1.6 | 0.00 | 0.00 | 0.00 | 79 | 1100.0 |
| 20260507063312 | 8 | 90 | 6.4 | 8.0 | 0.00 | 0.00 | 0.00 | 81 | 1100.0 |
| 20260507062310 | 8 | 90 | 6.4 | 8.0 | 0.00 | 0.00 | 0.00 | 81 | 1100.0 |
| 20260507061310 | 7 | 22 | 4.8 | 12.9 | 0.00 | 0.00 | 0.00 | 81 | 1100.0 |
| 20260507060310 | 7 | 22 | 4.8 | 12.9 | 0.00 | 0.00 | 0.00 | 81 | 1100.0 |
| 20260507055310 | 8 | 90 | 6.4 | 4.8 | 0.00 | 0.00 | 0.00 | 82 | 1100.0 |
| 20260507054311 | 8 | 90 | 6.4 | 4.8 | 0.00 | 0.00 | 0.00 | 82 | 1100.0 |
| 20260507053309 | 7 | 90 | 6.4 | 20.9 | 0.00 | 0.00 | 0.00 | 83 | 1100.0 |
| 20260507052309 | 7 | 90 | 6.4 | 20.9 | 0.00 | 0.00 | 0.00 | 83 | 1100.0 |
| 20260507051311 | 7 | 45 | 4.8 | 11.3 | 0.00 | 0.00 | 0.00 | 84 | 1100.0 |
| 20260507050314 | 7 | 45 | 4.8 | 11.3 | 0.00 | 0.00 | 0.00 | 84 | 1100.0 |
| 20260507045315 | 7 | 337 | 6.4 | 9.7 | 0.00 | 0.00 | 0.00 | 84 | 1100.0 |
| 20260507044314 | 7 | 337 | 6.4 | 9.7 | 0.00 | 0.00 | 0.00 | 84 | 1100.0 |
| 20260507043315 | 7 | 135 | 4.8 | 6.4 | 0.00 | 0.00 | 0.00 | 85 | 1100.0 |
| 20260507042314 | 7 | 135 | 4.8 | 6.4 | 0.00 | 0.00 | 0.00 | 85 | 1100.0 |
| 20260507041313 | 7 | 360 | 4.8 | 9.7 | 0.00 | 0.00 | 0.00 | 86 | 1100.0 |
| 20260507040313 | 7 | 360 | 4.8 | 9.7 | 0.00 | 0.00 | 0.00 | 86 | 1100.0 |
| 20260507035313 | 7 | 135 | 4.8 | 4.8 | 0.00 | 0.00 | 0.00 | 86 | 1100.0 |
| 20260507034313 | 7 | 135 | 4.8 | 4.8 | 0.00 | 0.00 | 0.00 | 86 | 1100.0 |
| 20260507033313 | 7 | 247 | 6.4 | 4.8 | 0.00 | 0.00 | 0.00 | 86 | 1100.0 |
| 20260507032313 | 7 | 247 | 6.4 | 4.8 | 0.00 | 0.00 | 0.00 | 86 | 1100.0 |
| 20260507031312 | 7 | 22 | 6.4 | 6.4 | 0.00 | 0.00 | 0.00 | 85 | 1100.0 |
| 20260507030312 | 7 | 22 | 6.4 | 6.4 | 0.00 | 0.00 | 0.00 | 85 | 1100.0 |
| 20260507025312 | 7 | 337 | 9.7 | 20.9 | 0.00 | 0.00 | 0.00 | 85 | 1100.0 |
| 20260507024314 | 7 | 337 | 9.7 | 20.9 | 0.00 | 0.00 | 0.00 | 85 | 1100.0 |
| 20260507023312 | 8 | 337 | 8.0 | 11.3 | 0.00 | 0.00 | 0.00 | 85 | 1100.0 |
| 20260507022313 | 8 | 337 | 8.0 | 11.3 | 0.00 | 0.00 | 0.00 | 85 | 1100.0 |
| 20260507021313 | 8 | 45 | 8.0 | 6.4 | 0.00 | 0.00 | 0.00 | 85 | 1100.0 |
| 20260507020313 | 8 | 45 | 8.0 | 6.4 | 0.00 | 0.00 | 0.00 | 85 | 1100.0 |
| 20260507015311 | 8 | 360 | 8.0 | 11.3 | 0.00 | 0.00 | 0.00 | 85 | 1100.0 |
| 20260507014311 | 8 | 360 | 8.0 | 11.3 | 0.00 | 0.00 | 0.00 | 85 | 1100.0 |
| 20260507013312 | 8 | 360 | 8.0 | 11.3 | 0.00 | 0.00 | 0.00 | 85 | 1100.0 |
| 20260507012312 | 8 | 360 | 8.0 | 11.3 | 0.00 | 0.00 | 0.00 | 85 | 1100.0 |
| 20260507011311 | 8 | 337 | 8.0 | 11.3 | 0.00 | 0.00 | 0.00 | 85 | 1100.0 |
| 20260507010312 | 8 | 337 | 8.0 | 11.3 | 0.00 | 0.00 | 0.00 | 85 | 1100.0 |
| 20260507005311 | 8 | 337 | 8.0 | 20.9 | 0.00 | 0.00 | 0.00 | 85 | 1100.0 |
| 20260507004310 | 8 | 337 | 8.0 | 20.9 | 0.00 | 0.00 | 0.00 | 85 | 1100.0 |
| 20260507003311 | 9 | 292 | 8.0 | 9.7 | 0.00 | 0.00 | 0.00 | 85 | 1100.0 |
| 20260507002310 | 9 | 292 | 8.0 | 9.7 | 0.00 | 0.00 | 0.00 | 85 | 1100.0 |
| 20260507001310 | 9 | 292 | 8.0 | 16.1 | 0.00 | 0.00 | 0.00 | 85 | 1100.0 |
| 20260507000310 | 9 | 292 | 8.0 | 16.1 | 0.00 | 0.00 | 0.00 | 85 | 1100.0 |
| 20260506235310 | 9 | 337 | 6.4 | 8.0 | 0.00 | 0.00 | 0.00 | 85 | 1100.0 |
| 20260506234310 | 9 | 337 | 6.4 | 8.0 | 0.00 | 0.00 | 0.00 | 85 | 1100.0 |
| 20260506233309 | 9 | 360 | 6.4 | 17.7 | 0.00 | 0.00 | 0.00 | 84 | 1100.0 |
| 20260506232314 | 9 | 360 | 6.4 | 17.7 | 0.00 | 0.00 | 0.00 | 84 | 1100.0 |
| 20260506231314 | 10 | 360 | 4.8 | 9.7 | 0.00 | 0.00 | 0.00 | 83 | 1100.0 |
| 20260506230316 | 10 | 360 | 4.8 | 9.7 | 0.00 | 0.00 | 0.00 | 83 | 1100.0 |